Flughafen Wetterinformationen

LTBA 070920Z 22011KT CAVOK 11/03 Q1020 NOSIG

VATSIM Feed

Card image cap

ATC Buchungen

Es wurde keine Position gebucht

Card image cap

Aktive Flugsicherung

Derzeit sind keine Fluglotsen Online

Blog

Read our latest news and get to know us better.